Погода в Сьюдад-Вальесе

Мексика     21°59′50″N   99°00′38″W
темп.,
°C
ветер,
м/с
пор.,
м/с
влажн.,
%
обл.,
%
осадки,
мм/ч
давл.,
гПа
погр.,
м
16 июня, ср
ср1601:00+23з1186100 2.1 101511
04:00+22зсз228899 0.0 101315
07:00+22з21907 0.0 101315
10:00+28з236266 0.0 1014530
13:00+34ссв463585 0.0 10122784
16:00+33ссв454183 0.1 10101477
19:00+26ююв116768 1.3 101138
22:00+22ссз119054 8.1 101415
17 июня, чт
чт1701:00+22з229153 9.8 101523
04:00+22зсз22891 0.0 101322
07:00+21зсз228719 0.0 101219
10:00+27з22646 0.0 1013409
13:00+32с454477 0.3 10121927
16:00+27с586798 0.6 1011726
19:00+22сз3692100 5.7 1012211
22:00+22з2393100 1.8 101488
18 июня, пт
пт1801:00+22юз2295100 3.4 101568
04:00+22зюз119171 0.0 101222
07:00+21з229090 0.0 101218
10:00+26з2271100 0.0 1013353
13:00+31св2348100 0.0 10121590
16:00+32в4544100 0.0 10092007
19:00+27юв5971100 0.4 1010358
22:00+24ююв1288100 2.1 101220
19 июня, сб
сб1901:00+23зсз2291100 3.5 101320
04:00+23сз1190100 0.0 101120
07:00+22зсз1190100 0.0 101115
10:00+27юз117286 0.0 1013382
13:00+32юв224699 0.0 10111583
16:00+34юв434075 0.0 10081940
19:00+32юв3448100 0.0 10091199
22:00+27юв2671100 0.0 1011246
20 июня, вс
вс2001:00+25юв0084100 0.3 101211
04:00+25сз118699 0.0 100912
07:00+24зюз1186100 0.0 100912
10:00+29ю2263100 0.0 1010476
13:00+34юв444598 0.0 10081025
16:00+37юв653934 0.0 10051242
19:00+34ююв674889 0.0 10051144
22:00+28в367755 0.0 1006234